EZY65E EGKK-EGAA

Flight info

Callsign EZY65E
Flight time 1h 4m
Altitude 28000
Route LAM L10 BPK UN601 LESTA UP6 RODOL UM65 TENSO L603 BELOX DCT REMSI DCT UVPOK M147 ROBOP M146 IPSET P6 BELZU
Aircraft A320/M-SDE3FGHIRWY/LB1

Departure

Time 2026-05-06 18:58
Airport London Gatwick Airport (EGKK)

Arrival

Time 2026-05-06 20:03
Airport Belfast International Airport (EGAA)
Time Latitude Longitude Altitude Speed Heading
2026-05-06 18:13 51.15859 -0.17526 205 ft 0 kts 347°
2026-05-06 18:16 51.15852 -0.17523 205 ft 0 kts 347°
2026-05-06 18:28 51.15851 -0.17523 205 ft 0 kts 347°
2026-05-06 18:39 51.15828 -0.17515 211 ft 4 kts 347°
2026-05-06 18:39 51.15806 -0.17507 207 ft 3 kts 347°
2026-05-06 18:40 51.15771 -0.17459 213 ft 4 kts 270°
2026-05-06 18:40 51.15774 -0.17419 211 ft 4 kts 258°
2026-05-06 18:40 51.15780 -0.17379 213 ft 2 kts 258°
2026-05-06 18:40 51.15780 -0.17376 212 ft 1 kts 258°
2026-05-06 18:43 51.15777 -0.17391 210 ft 2 kts 255°
2026-05-06 18:44 51.15774 -0.17416 211 ft 0 kts 256°
2026-05-06 18:44 51.15771 -0.17433 209 ft 4 kts 257°
2026-05-06 18:44 51.15762 -0.17505 212 ft 9 kts 258°
2026-05-06 18:45 51.15744 -0.17625 213 ft 13 kts 258°
2026-05-06 18:45 51.15721 -0.17792 205 ft 17 kts 253°
2026-05-06 18:45 51.15695 -0.17985 205 ft 12 kts 256°
2026-05-06 18:45 51.15674 -0.18123 212 ft 12 kts 255°
2026-05-06 18:46 51.15655 -0.18272 205 ft 11 kts 259°
2026-05-06 18:46 51.15599 -0.18349 213 ft 13 kts 177°
2026-05-06 18:46 51.15497 -0.18317 211 ft 18 kts 166°
2026-05-06 18:46 51.15361 -0.18267 208 ft 18 kts 167°
2026-05-06 18:47 51.15271 -0.18237 207 ft 9 kts 170°
2026-05-06 18:47 51.15201 -0.18236 216 ft 12 kts 206°
2026-05-06 18:47 51.15177 -0.18382 205 ft 16 kts 260°
2026-05-06 18:47 51.15153 -0.18561 208 ft 17 kts 258°
2026-05-06 18:48 51.15130 -0.18764 216 ft 18 kts 249°
2026-05-06 18:48 51.15102 -0.18947 209 ft 17 kts 258°
2026-05-06 18:48 51.15074 -0.19156 209 ft 21 kts 257°
2026-05-06 18:48 51.15045 -0.19371 206 ft 22 kts 258°
2026-05-06 18:49 51.15015 -0.19590 205 ft 22 kts 257°
2026-05-06 18:49 51.14978 -0.19845 211 ft 19 kts 257°
2026-05-06 18:49 51.14946 -0.20075 205 ft 24 kts 257°
2026-05-06 18:49 51.14908 -0.20355 208 ft 27 kts 257°
2026-05-06 18:50 51.14868 -0.20634 214 ft 19 kts 257°
2026-05-06 18:50 51.14842 -0.20831 205 ft 17 kts 257°
2026-05-06 18:50 51.14817 -0.21009 205 ft 15 kts 257°
2026-05-06 18:50 51.14791 -0.21163 211 ft 13 kts 248°
2026-05-06 18:51 51.14767 -0.21298 214 ft 12 kts 257°
2026-05-06 18:51 51.14749 -0.21385 212 ft 6 kts 236°
2026-05-06 18:51 51.14731 -0.21403 211 ft 0 kts 198°
2026-05-06 18:52 51.14728 -0.21404 211 ft 3 kts 195°
2026-05-06 18:52 51.14686 -0.21395 207 ft 0 kts 155°
2026-05-06 18:54 51.14685 -0.21394 205 ft 2 kts 154°
2026-05-06 18:55 51.14652 -0.21351 210 ft 7 kts 145°
2026-05-06 18:55 51.14619 -0.21331 212 ft 0 kts 165°
2026-05-06 18:55 51.14613 -0.21329 211 ft 0 kts 165°
2026-05-06 18:57 51.14573 -0.21307 208 ft 14 kts 158°
2026-05-06 18:57 51.14522 -0.21178 206 ft 13 kts 90°
2026-05-06 18:57 51.14543 -0.21001 215 ft 29 kts 77°
2026-05-06 18:57 51.14644 -0.20290 212 ft 100 kts 77°
2026-05-06 18:58 51.14830 -0.18933 214 ft 151 kts 77°
2026-05-06 18:58 51.15041 -0.17201 718 ft 162 kts 78°
2026-05-06 18:58 51.15238 -0.15387 1425 ft 170 kts 77°
2026-05-06 18:58 51.15463 -0.13521 2015 ft 182 kts 74°
2026-05-06 18:59 51.15771 -0.11425 2403 ft 207 kts 74°
2026-05-06 18:59 51.16126 -0.09067 2907 ft 231 kts 74°
2026-05-06 18:59 51.16668 -0.06536 3477 ft 250 kts 57°
2026-05-06 18:59 51.17732 -0.04286 4373 ft 258 kts 50°
2026-05-06 19:00 51.18860 -0.02002 4833 ft 264 kts 50°
2026-05-06 19:00 51.19990 0.00314 4978 ft 266 kts 51°
2026-05-06 19:00 51.21127 0.02664 4991 ft 268 kts 51°
2026-05-06 19:00 51.22262 0.05021 5057 ft 267 kts 52°
2026-05-06 19:01 51.23396 0.07376 5314 ft 268 kts 51°
2026-05-06 19:01 51.24511 0.09770 5560 ft 270 kts 58°
2026-05-06 19:01 51.25215 0.12542 5833 ft 272 kts 77°
2026-05-06 19:01 51.25570 0.15507 5963 ft 273 kts 79°
2026-05-06 19:02 51.25919 0.18485 5988 ft 273 kts 79°
2026-05-06 19:02 51.26270 0.21464 5984 ft 272 kts 79°
2026-05-06 19:02 51.26620 0.24427 5992 ft 272 kts 78°
2026-05-06 19:02 51.26977 0.27435 6390 ft 276 kts 78°
2026-05-06 19:03 51.27336 0.30446 7398 ft 278 kts 76°
2026-05-06 19:03 51.28075 0.33288 8298 ft 281 kts 51°
2026-05-06 19:03 51.29491 0.35419 9213 ft 282 kts 28°
2026-05-06 19:03 51.31330 0.36473 10099 ft 283 kts
2026-05-06 19:04 51.33299 0.36250 10754 ft 293 kts 342°
2026-05-06 19:04 51.35158 0.34755 11064 ft 315 kts 327°
2026-05-06 19:04 51.37084 0.32831 11436 ft 335 kts 327°
2026-05-06 19:04 51.39081 0.30829 12115 ft 342 kts 327°
2026-05-06 19:05 51.41114 0.28796 12907 ft 347 kts 327°
2026-05-06 19:05 51.43179 0.26742 13703 ft 351 kts 327°
2026-05-06 19:05 51.45270 0.24673 14436 ft 355 kts 328°
2026-05-06 19:05 51.47380 0.22590 15138 ft 358 kts 328°
2026-05-06 19:06 51.49519 0.20482 15833 ft 362 kts 327°
2026-05-06 19:06 51.51673 0.18353 16528 ft 366 kts 327°
2026-05-06 19:06 51.53856 0.16186 17174 ft 370 kts 327°
2026-05-06 19:06 51.56058 0.13998 17828 ft 375 kts 327°
2026-05-06 19:07 51.58286 0.11783 18449 ft 379 kts 327°
2026-05-06 19:07 51.60535 0.09545 19029 ft 382 kts 327°
2026-05-06 19:07 51.62802 0.07285 19593 ft 385 kts 327°
2026-05-06 19:07 51.65081 0.05009 20157 ft 388 kts 327°
2026-05-06 19:08 51.67382 0.02704 20703 ft 391 kts 327°
2026-05-06 19:08 51.69704 0.00371 21246 ft 394 kts 327°
2026-05-06 19:08 51.72043 -0.01978 21796 ft 398 kts 327°
2026-05-06 19:08 51.74377 -0.04320 22324 ft 401 kts 327°
2026-05-06 19:09 51.75978 -0.05929 22675 ft 403 kts 327°
2026-05-06 19:09 51.78906 -0.08870 23304 ft 407 kts 327°
2026-05-06 19:09 51.81322 -0.11298 23785 ft 410 kts 326°
2026-05-06 19:09 51.83752 -0.13745 24195 ft 413 kts 326°
2026-05-06 19:10 51.86193 -0.16206 24615 ft 415 kts 326°
2026-05-06 19:10 51.88653 -0.18699 25039 ft 417 kts 326°
2026-05-06 19:10 51.91118 -0.21202 25450 ft 420 kts 326°
2026-05-06 19:10 51.93599 -0.23724 25853 ft 422 kts 326°
2026-05-06 19:11 51.96090 -0.26259 26258 ft 424 kts 326°
2026-05-06 19:11 51.98602 -0.28817 26663 ft 427 kts 326°
2026-05-06 19:11 52.01123 -0.31389 27057 ft 429 kts 326°
2026-05-06 19:11 52.03660 -0.33975 27420 ft 431 kts 326°
2026-05-06 19:12 52.06206 -0.36568 27813 ft 433 kts 326°
2026-05-06 19:12 52.08766 -0.39179 27982 ft 434 kts 326°
2026-05-06 19:12 52.11315 -0.41782 28008 ft 433 kts 326°
2026-05-06 19:13 52.16407 -0.47007 28006 ft 432 kts 325°
2026-05-06 19:13 52.21490 -0.52237 28010 ft 432 kts 325°
2026-05-06 19:14 52.26536 -0.57436 28013 ft 432 kts 325°
2026-05-06 19:14 52.31610 -0.62674 28024 ft 431 kts 325°
2026-05-06 19:15 52.36665 -0.67923 28027 ft 430 kts 325°
2026-05-06 19:15 52.41710 -0.73186 28026 ft 430 kts 325°
2026-05-06 19:16 52.46762 -0.78460 28023 ft 430 kts 325°
2026-05-06 19:16 52.51808 -0.83727 28023 ft 430 kts 325°
2026-05-06 19:17 52.56849 -0.89022 28033 ft 430 kts 325°
2026-05-06 19:17 52.61884 -0.94322 28030 ft 429 kts 325°
2026-05-06 19:18 52.66881 -0.99591 28027 ft 429 kts 325°
2026-05-06 19:18 52.71909 -1.04896 28015 ft 429 kts 326°
2026-05-06 19:19 52.76540 -1.11015 28061 ft 426 kts 315°
2026-05-06 19:19 52.80838 -1.17779 28053 ft 426 kts 315°
2026-05-06 19:20 52.85148 -1.24531 28045 ft 426 kts 316°
2026-05-06 19:20 52.89415 -1.31249 28047 ft 426 kts 315°
2026-05-06 19:21 52.93702 -1.38033 28046 ft 426 kts 315°
2026-05-06 19:21 52.97989 -1.44831 28036 ft 426 kts 315°
2026-05-06 19:22 53.02267 -1.51644 28049 ft 426 kts 316°
2026-05-06 19:22 53.06535 -1.58459 28037 ft 425 kts 316°
2026-05-06 19:23 53.10805 -1.65272 28044 ft 425 kts 316°
2026-05-06 19:23 53.15071 -1.72104 28042 ft 425 kts 316°
2026-05-06 19:24 53.19328 -1.78957 28043 ft 425 kts 316°
2026-05-06 19:24 53.23654 -1.85667 28028 ft 425 kts 322°
2026-05-06 19:25 53.28665 -1.90780 28034 ft 425 kts 330°
2026-05-06 19:25 53.33805 -1.95645 28036 ft 424 kts 330°
2026-05-06 19:26 53.38935 -2.00526 28024 ft 424 kts 330°
2026-05-06 19:26 53.44073 -2.05413 28038 ft 424 kts 330°
2026-05-06 19:27 53.49198 -2.10310 28017 ft 424 kts 330°
2026-05-06 19:27 53.53452 -2.14393 28017 ft 424 kts 330°
2026-05-06 19:28 53.58259 -2.20075 28022 ft 424 kts 315°
2026-05-06 19:28 53.61682 -2.28096 28018 ft 425 kts 296°
2026-05-06 19:29 53.63877 -2.37370 28017 ft 426 kts 292°
2026-05-06 19:29 53.66011 -2.46686 28009 ft 426 kts 292°
2026-05-06 19:30 53.68152 -2.56036 28012 ft 426 kts 292°
2026-05-06 19:30 53.69212 -2.60697 27997 ft 426 kts 292°
2026-05-06 19:30 53.70268 -2.65372 28004 ft 426 kts 292°
2026-05-06 19:31 53.72365 -2.74679 28007 ft 426 kts 292°
2026-05-06 19:31 53.75505 -2.88712 28012 ft 425 kts 292°
2026-05-06 19:32 53.77595 -2.98061 28017 ft 425 kts 292°
2026-05-06 19:32 53.79681 -3.07427 28026 ft 425 kts 291°
2026-05-06 19:33 53.81751 -3.16784 28003 ft 425 kts 291°
2026-05-06 19:33 53.83819 -3.26162 28004 ft 425 kts 291°
2026-05-06 19:34 53.85877 -3.35546 28007 ft 425 kts 291°
2026-05-06 19:34 53.87921 -3.44960 28007 ft 425 kts 291°
2026-05-06 19:35 53.88938 -3.49658 27995 ft 425 kts 291°
2026-05-06 19:35 53.89948 -3.54306 28003 ft 425 kts 291°
2026-05-06 19:35 53.91993 -3.63725 28001 ft 425 kts 291°
2026-05-06 19:36 53.93009 -3.68432 27990 ft 425 kts 291°
2026-05-06 19:36 53.94022 -3.73153 27991 ft 426 kts 291°
2026-05-06 19:36 53.95033 -3.77886 27997 ft 426 kts 291°
2026-05-06 19:36 53.95952 -3.82668 27992 ft 427 kts 285°
2026-05-06 19:37 53.96931 -3.92640 27994 ft 428 kts 280°
2026-05-06 19:37 53.97376 -3.97638 27992 ft 428 kts 281°
2026-05-06 19:37 53.97821 -4.02650 27995 ft 428 kts 280°
2026-05-06 19:38 53.98264 -4.07659 27997 ft 428 kts 280°
2026-05-06 19:38 53.98706 -4.12668 28003 ft 429 kts 280°
2026-05-06 19:38 53.99305 -4.17614 27999 ft 427 kts 288°
2026-05-06 19:38 54.00352 -4.22319 27994 ft 424 kts 297°
2026-05-06 19:39 54.03477 -4.30690 27998 ft 423 kts 307°
2026-05-06 19:39 54.06863 -4.38888 28012 ft 423 kts 306°
2026-05-06 19:40 54.08548 -4.42977 27664 ft 420 kts 306°
2026-05-06 19:40 54.10229 -4.47063 26639 ft 423 kts 306°
2026-05-06 19:40 54.11922 -4.51182 25758 ft 423 kts 306°
2026-05-06 19:40 54.13598 -4.55267 25070 ft 419 kts 305°
2026-05-06 19:41 54.15261 -4.59318 24378 ft 415 kts 305°
2026-05-06 19:41 54.16908 -4.63338 23756 ft 410 kts 304°
2026-05-06 19:41 54.18529 -4.67301 23061 ft 405 kts 304°
2026-05-06 19:41 54.20134 -4.71216 22357 ft 400 kts 304°
2026-05-06 19:42 54.21700 -4.75045 21689 ft 396 kts 304°
2026-05-06 19:42 54.23267 -4.78888 21022 ft 392 kts 304°
2026-05-06 19:42 54.24820 -4.82701 20386 ft 388 kts 304°
2026-05-06 19:42 54.26352 -4.86470 19758 ft 385 kts 303°
2026-05-06 19:43 54.27870 -4.90216 19134 ft 381 kts 303°
2026-05-06 19:43 54.29380 -4.93952 18533 ft 378 kts 303°
2026-05-06 19:43 54.30876 -4.97654 17891 ft 375 kts 303°
2026-05-06 19:43 54.32336 -5.01274 17254 ft 372 kts 303°
2026-05-06 19:44 54.33802 -5.04910 16630 ft 369 kts 303°
2026-05-06 19:44 54.35259 -5.08522 16036 ft 367 kts 303°
2026-05-06 19:44 54.36703 -5.12105 15459 ft 364 kts 303°
2026-05-06 19:44 54.38135 -5.15672 14887 ft 361 kts 303°
2026-05-06 19:45 54.39552 -5.19206 14342 ft 359 kts 302°
2026-05-06 19:45 54.40964 -5.22734 13780 ft 357 kts 302°
2026-05-06 19:45 54.42361 -5.26232 13172 ft 354 kts 302°
2026-05-06 19:45 54.43745 -5.29701 12581 ft 351 kts 302°
2026-05-06 19:46 54.45144 -5.33126 11975 ft 349 kts 306°
2026-05-06 19:46 54.46773 -5.36228 11375 ft 348 kts 312°
2026-05-06 19:46 54.48445 -5.39214 10752 ft 345 kts 311°
2026-05-06 19:46 54.49896 -5.42460 10193 ft 341 kts 300°
2026-05-06 19:47 54.50934 -5.46104 10000 ft 337 kts 289°
2026-05-06 19:47 54.51543 -5.49867 9983 ft 316 kts 279°
2026-05-06 19:47 54.51750 -5.53462 10004 ft 296 kts 270°
2026-05-06 19:47 54.51726 -5.56942 9986 ft 277 kts 268°
2026-05-06 19:48 54.51697 -5.60101 9939 ft 253 kts 268°
2026-05-06 19:48 54.51671 -5.62973 9808 ft 234 kts 268°
2026-05-06 19:48 54.51646 -5.65674 9592 ft 220 kts 268°
2026-05-06 19:48 54.51619 -5.68292 9320 ft 217 kts 268°
2026-05-06 19:49 54.51591 -5.70913 9076 ft 216 kts 268°
2026-05-06 19:49 54.51563 -5.73490 8802 ft 215 kts 268°
2026-05-06 19:49 54.51537 -5.76030 8553 ft 214 kts 268°
2026-05-06 19:49 54.51510 -5.78592 8284 ft 214 kts 268°
2026-05-06 19:50 54.51482 -5.81148 8040 ft 213 kts 268°
2026-05-06 19:50 54.51454 -5.83686 7796 ft 211 kts 268°
2026-05-06 19:50 54.51426 -5.86191 7381 ft 209 kts 268°
2026-05-06 19:50 54.51398 -5.88702 6892 ft 210 kts 268°
2026-05-06 19:51 54.51369 -5.91222 6428 ft 211 kts 268°
2026-05-06 19:51 54.51338 -5.93736 5956 ft 209 kts 267°
2026-05-06 19:51 54.51307 -5.96219 5524 ft 205 kts 267°
2026-05-06 19:51 54.51275 -5.98656 5078 ft 204 kts 268°
2026-05-06 19:52 54.51243 -6.01091 4638 ft 203 kts 267°
2026-05-06 19:52 54.51213 -6.03496 4182 ft 201 kts 267°
2026-05-06 19:52 54.51182 -6.05880 4005 ft 198 kts 267°
2026-05-06 19:52 54.51151 -6.08261 4008 ft 200 kts 267°
2026-05-06 19:53 54.51118 -6.10621 4003 ft 200 kts 267°
2026-05-06 19:53 54.51084 -6.13026 4006 ft 201 kts 267°
2026-05-06 19:53 54.51048 -6.15424 4007 ft 202 kts 267°
2026-05-06 19:53 54.51013 -6.17848 4006 ft 202 kts 266°
2026-05-06 19:54 54.50979 -6.20252 4011 ft 201 kts 266°
2026-05-06 19:54 54.50945 -6.22654 4005 ft 202 kts 267°
2026-05-06 19:54 54.50910 -6.25067 4004 ft 202 kts 267°
2026-05-06 19:54 54.50874 -6.27484 4005 ft 201 kts 266°
2026-05-06 19:55 54.50835 -6.29883 4008 ft 202 kts 267°
2026-05-06 19:55 54.50798 -6.32309 4003 ft 202 kts 267°
2026-05-06 19:55 54.50761 -6.34721 4007 ft 201 kts 267°
2026-05-06 19:55 54.50726 -6.37046 3926 ft 187 kts 267°
2026-05-06 19:56 54.50695 -6.39181 3806 ft 169 kts 267°
2026-05-06 19:56 54.50770 -6.41089 3508 ft 160 kts 281°
2026-05-06 19:56 54.51193 -6.42894 3089 ft 162 kts 298°
2026-05-06 19:56 54.51932 -6.44374 2655 ft 166 kts 316°
2026-05-06 19:57 54.52906 -6.45378 2499 ft 167 kts 333°
2026-05-06 19:57 54.53966 -6.46226 2505 ft 169 kts 332°
2026-05-06 19:57 54.55041 -6.47098 2504 ft 169 kts 332°
2026-05-06 19:57 54.56087 -6.47943 2505 ft 168 kts 331°
2026-05-06 19:58 54.57208 -6.48502 2487 ft 172 kts 357°
2026-05-06 19:58 54.58294 -6.47934 2493 ft 157 kts 35°
2026-05-06 19:58 54.58981 -6.46562 2496 ft 148 kts 67°
2026-05-06 19:58 54.59411 -6.44961 2501 ft 147 kts 69°
2026-05-06 19:59 54.59844 -6.43375 2502 ft 146 kts 69°
2026-05-06 19:59 54.60277 -6.41791 2508 ft 146 kts 68°
2026-05-06 19:59 54.60710 -6.40204 2319 ft 145 kts 70°
2026-05-06 19:59 54.61136 -6.38640 2126 ft 143 kts 70°
2026-05-06 20:00 54.61558 -6.37087 1914 ft 142 kts 70°
2026-05-06 20:00 54.61975 -6.35543 1733 ft 141 kts 70°
2026-05-06 20:00 54.62389 -6.34007 1528 ft 141 kts 71°
2026-05-06 20:00 54.62801 -6.32482 1343 ft 139 kts 69°
2026-05-06 20:01 54.63208 -6.30982 1145 ft 138 kts 71°
2026-05-06 20:01 54.63607 -6.29510 968 ft 135 kts 70°
2026-05-06 20:01 54.64000 -6.28057 799 ft 133 kts 68°
2026-05-06 20:01 54.64388 -6.26636 672 ft 132 kts 69°
2026-05-06 20:02 54.64789 -6.25184 511 ft 132 kts 71°
2026-05-06 20:02 54.65177 -6.23747 332 ft 131 kts 69°
2026-05-06 20:02 54.65527 -6.22388 276 ft 114 kts 64°
2026-05-06 20:02 54.65801 -6.21396 273 ft 67 kts 63°
2026-05-06 20:03 54.65937 -6.20881 272 ft 39 kts 65°
2026-05-06 20:03 54.66046 -6.20471 274 ft 35 kts 66°
2026-05-06 20:03 54.66144 -6.20091 275 ft 33 kts 61°
2026-05-06 20:03 54.66235 -6.19776 274 ft 25 kts 64°
2026-05-06 20:04 54.66306 -6.19652 272 ft 11 kts 354°
2026-05-06 20:04 54.66347 -6.19706 272 ft 7 kts 328°
2026-05-06 20:04 54.66391 -6.19795 272 ft 11 kts 288°
2026-05-06 20:04 54.66380 -6.19919 272 ft 10 kts 247°
2026-05-06 20:05 54.66341 -6.20068 272 ft 19 kts 245°
2026-05-06 20:05 54.66275 -6.20310 272 ft 24 kts 245°
2026-05-06 20:05 54.66201 -6.20582 273 ft 26 kts 245°
2026-05-06 20:05 54.66121 -6.20877 275 ft 26 kts 244°
2026-05-06 20:06 54.66052 -6.21136 272 ft 19 kts 246°
2026-05-06 20:06 54.66004 -6.21319 272 ft 10 kts 245°
2026-05-06 20:06 54.65979 -6.21424 272 ft 9 kts 262°
2026-05-06 20:06 54.66011 -6.21502 272 ft 7 kts 329°
2026-05-06 20:07 54.66046 -6.21531 275 ft 4 kts 334°
2026-05-06 20:07 54.66059 -6.21541 272 ft 1 kts 335°
2026-05-06 20:07 54.66066 -6.21547 272 ft 2 kts 335°
2026-05-06 20:07 54.66072 -6.21552 272 ft 0 kts 335°
2026-05-06 20:08 54.66073 -6.21553 272 ft 0 kts 335°
2026-05-06 20:21 54.66073 -6.21552 272 ft 0 kts 335°